Weather History for Midland Airpark, TX

Change the Weather History Date:

Saturday, April 28, 2012

  Actual Average (KMAF) Record (KMAF)
Temperature  
Mean Temperature 78 °F 68 °F  
Max Temperature 97 °F 83 °F 98 °F (1992)
Min Temperature 60 °F 54 °F 37 °F (2008)
Degree Days  
Heating Degree Days 0 2  
Month to date heating degree days 109  
Since 1 July heating degree days 2653  
Cooling Degree Days 14 5  
Month to date cooling degree days 79  
Year to date cooling degree days 97  
Growing Degree Days 28 (Base 50)    
Moisture  
Dew Point 44 °F    
Average Humidity 31    
Maximum Humidity 57    
Minimum Humidity 9    
Precipitation  
Precipitation 0.00 in 0.02 in 2.00 in (1931)
Month to date precipitation 0.60  
Year to date precipitation 2.47  
Snow  
Snow 0.00 in - - ()
Month to date snowfall  
Since 1 July snowfall  
Snow Depth -    
Sea Level Pressure  
Sea Level Pressure 29.78 in    
Wind  
Wind Speed 9 mph (SSW)    
Max Wind Speed 21 mph    
Max Gust Speed 29 mph    
Visibility 10 miles    
Events      
T = Trace of Precipitation, MM = Missing Value Source: NWS Daily Summary

Daily Weather History Graph

Daily Weather History Graph

Search for Another Location

Airport:

Trip Planner

Search our weather history database for the weather conditions in past years. The results will help you decide how hot, cold, wet, or windy it might be!

Date:

Astronomy

Apr. 28, 2012 Rise Set
Actual Time 7:04 AM CDT 8:27 PM CDT
Civil Twilight 6:38 AM CDT 8:53 PM CDT
Nautical Twilight 6:08 AM CDT 9:24 PM CDT
Astronomical Twilight 5:36 AM CDT 9:56 PM CDT
Moon 12:48 PM CDT (4/28) 1:50 AM CDT (4/28)
Length of Visible Light 14h 14m
Length of Day
13h 22m
Waxing Crescent, 43% of the Moon is Illuminated
Apr 28
Waxing Crescent
Apr 29
First Quarter
May 5
Full
May 12
Last Quarter
May 20
New

Hourly Weather History & Observations

Time (CDT) Temp. Heat Index Dew Point Humidity Pressure Visibility Wind Dir Wind Speed Gust Speed Precip Events Conditions
12:15 AM 79.7 °F - 30.6 °F 17% 29.78 in 10.0 mi SSW 10.4 mph - N/A   Clear
12:35 AM 79.3 °F - 40.1 °F 25% 29.79 in 10.0 mi SSW 10.4 mph 16.1 mph N/A   Clear
12:55 AM 78.6 °F - 43.9 °F 29% 29.79 in 10.0 mi SSW 10.4 mph - N/A   Clear
1:15 AM 78.4 °F - 46.6 °F 32% 29.78 in 10.0 mi SSW 11.5 mph - N/A   Clear
1:35 AM 78.3 °F - 47.3 °F 34% 29.78 in 10.0 mi SSW 10.4 mph - N/A   Clear
1:55 AM 77.5 °F - 47.5 °F 35% 29.78 in 10.0 mi SSW 9.2 mph - N/A   Clear
2:35 AM 75.9 °F - 47.7 °F 37% 29.77 in 10.0 mi SSW 10.4 mph - N/A   Clear
2:55 AM 75.7 °F - 47.5 °F 37% 29.77 in 10.0 mi SSW 10.4 mph - N/A   Clear
3:15 AM 75.4 °F - 47.3 °F 37% 29.77 in 10.0 mi SSW 10.4 mph - N/A   Clear
3:55 AM 74.5 °F - 47.3 °F 38% 29.76 in 10.0 mi SSW 9.2 mph - N/A   Clear
4:15 AM 73.8 °F - 47.5 °F 39% 29.77 in 10.0 mi SSW 10.4 mph - N/A   Clear
4:35 AM 73.4 °F - 47.3 °F 39% 29.77 in 10.0 mi SSW 9.2 mph - N/A   Clear
4:55 AM 73.0 °F - 47.1 °F 40% 29.77 in 10.0 mi SSW 9.2 mph - N/A   Clear
5:15 AM 72.0 °F - 46.6 °F 40% 29.78 in 10.0 mi West 6.9 mph - N/A   Clear
5:35 AM 69.4 °F - 46.9 °F 45% 29.78 in 10.0 mi SW 5.8 mph - N/A   Clear
5:55 AM 69.6 °F - 46.6 °F 44% 29.78 in 10.0 mi SW 6.9 mph - N/A   Clear
6:15 AM 68.2 °F - 46.4 °F 46% 29.80 in 10.0 mi NW 5.8 mph - N/A   Clear
6:35 AM 64.2 °F - 46.0 °F 52% 29.81 in 10.0 mi Calm Calm - N/A   Clear
6:55 AM 63.7 °F - 46.0 °F 53% 29.81 in 10.0 mi NW 3.5 mph - N/A   Clear
7:15 AM 61.3 °F - 45.7 °F 56% 29.82 in 10.0 mi North 4.6 mph - N/A   Clear
7:35 AM 60.6 °F - 45.3 °F 57% 29.82 in 10.0 mi Calm Calm - N/A   Clear
7:55 AM 62.1 °F - 45.3 °F 54% 29.83 in 10.0 mi Calm Calm - N/A   Clear
8:15 AM 64.6 °F - 45.7 °F 50% 29.83 in 10.0 mi West 3.5 mph - N/A   Clear
8:35 AM 67.1 °F - 46.2 °F 47% 29.83 in 10.0 mi West 4.6 mph - N/A   Clear
8:55 AM 70.0 °F - 47.5 °F 45% 29.83 in 10.0 mi SW 5.8 mph - N/A   Clear
9:35 AM 74.8 °F - 50.5 °F 42% 29.82 in 10.0 mi WSW 10.4 mph - N/A   Clear
9:55 AM 77.5 °F - 51.1 °F 40% 29.83 in 10.0 mi SW 8.1 mph - N/A   Clear
10:15 AM 79.2 °F - 49.5 °F 35% 29.83 in 10.0 mi WSW 8.1 mph - N/A   Clear
10:35 AM 80.1 °F - 46.8 °F 31% 29.83 in 10.0 mi SW 5.8 mph - N/A   Clear
10:55 AM 81.3 °F - 45.3 °F 28% 29.83 in 10.0 mi Calm Calm - N/A   Clear
11:15 AM 82.8 °F - 43.9 °F 25% 29.83 in 10.0 mi South 6.9 mph - N/A   Clear
11:35 AM 84.2 °F - 42.3 °F 23% 29.83 in 10.0 mi Calm Calm - N/A   Clear
11:55 AM 85.1 °F - 41.4 °F 21% 29.83 in 10.0 mi SSW 6.9 mph - N/A   Clear
12:15 PM 85.8 °F - 41.7 °F 21% 29.82 in 10.0 mi WSW 5.8 mph - N/A   Clear
12:55 PM 88.5 °F - 43.3 °F 21% 29.81 in 10.0 mi Calm Calm - N/A   Clear
1:15 PM 89.2 °F - 41.7 °F 19% 29.80 in 10.0 mi WSW 9.2 mph - N/A   Clear
1:35 PM 91.0 °F - 38.8 °F 16% 29.79 in 10.0 mi SW 5.8 mph 17.3 mph N/A   Clear
1:55 PM 92.3 °F - 34.9 °F 13% 29.78 in 10.0 mi SSE 11.5 mph - N/A   Clear
2:15 PM 93.2 °F - 34.5 °F 13% 29.78 in 10.0 mi South 11.5 mph - N/A   Clear
2:35 PM 93.2 °F - 33.4 °F 12% 29.77 in 10.0 mi WSW 6.9 mph - N/A   Clear
2:55 PM 93.6 °F - 32.5 °F 12% 29.76 in 10.0 mi SSE 6.9 mph - N/A   Clear
3:15 PM 94.3 °F - 31.5 °F 11% 29.75 in 10.0 mi South 11.5 mph 17.3 mph N/A   Clear
3:35 PM 94.6 °F - 30.6 °F 10% 29.75 in 10.0 mi South 4.6 mph - N/A   Clear
3:55 PM 95.0 °F - 28.8 °F 9% 29.74 in 10.0 mi West 4.6 mph - N/A   Clear
4:15 PM 95.7 °F - 30.0 °F 10% 29.73 in 10.0 mi SW 6.9 mph - N/A   Clear
4:35 PM 95.5 °F - 30.2 °F 10% 29.72 in 10.0 mi NNE 3.5 mph - N/A   Clear
4:55 PM 96.6 °F - 31.3 °F 10% 29.71 in 10.0 mi SE 10.4 mph - N/A   Clear
5:15 PM 97.2 °F - 32.2 °F 10% 29.71 in 10.0 mi South 13.8 mph - N/A   Clear
5:35 PM 96.4 °F - 32.2 °F 10% 29.70 in 10.0 mi South 11.5 mph 17.3 mph N/A   Clear
5:55 PM 96.3 °F - 33.8 °F 11% 29.70 in 10.0 mi South 13.8 mph 18.4 mph N/A   Clear
6:15 PM 95.4 °F - 38.5 °F 14% 29.71 in 10.0 mi SSE 12.7 mph - N/A   Clear
6:35 PM 94.6 °F - 39.7 °F 15% 29.70 in 10.0 mi SSE 15.0 mph - N/A   Clear
6:55 PM 93.2 °F - 41.0 °F 16% 29.71 in 10.0 mi SE 19.6 mph 26.5 mph N/A   Clear
7:35 PM 90.0 °F - 48.4 °F 24% 29.71 in 10.0 mi SSE 19.6 mph 25.3 mph N/A   Clear
7:55 PM 88.5 °F - 48.6 °F 25% 29.72 in 10.0 mi SSE 18.4 mph 24.2 mph N/A   Clear
8:35 PM 85.1 °F - 47.5 °F 27% 29.73 in 10.0 mi SSE 18.4 mph 26.5 mph N/A   Clear
8:55 PM 83.5 °F - 50.0 °F 31% 29.74 in 10.0 mi SSE 20.7 mph 27.6 mph N/A   Clear
9:15 PM 82.4 °F - 52.0 °F 35% 29.75 in 10.0 mi SSE 17.3 mph 25.3 mph N/A   Clear
9:35 PM 81.7 °F 81.0 °F 53.4 °F 38% 29.76 in 10.0 mi South 18.4 mph 23.0 mph N/A   Clear
9:55 PM 80.8 °F 80.5 °F 54.7 °F 40% 29.76 in 10.0 mi South 18.4 mph 28.8 mph N/A   Clear
10:15 PM 79.5 °F - 55.0 °F 43% 29.78 in 10.0 mi South 19.6 mph 27.6 mph N/A   Clear
10:35 PM 78.8 °F - 55.8 °F 45% 29.79 in 10.0 mi South 19.6 mph 25.3 mph N/A   Clear
10:55 PM 78.1 °F - 55.8 °F 46% 29.79 in 10.0 mi South 16.1 mph 25.3 mph N/A   Clear
11:15 PM 77.4 °F - 55.6 °F 47% 29.79 in 10.0 mi South 17.3 mph 21.9 mph N/A   Clear
11:35 PM 77.0 °F - 55.8 °F 48% 29.78 in 10.0 mi SSE 15.0 mph 20.7 mph N/A   Clear
11:55 PM 76.5 °F - 55.9 °F 49% 29.78 in 10.0 mi South 13.8 mph - N/A   Clear